www.pogodaiklimat.ru

Погода и климат >> Архив погоды >> Россия >> Якутия >> Верхоянск


АРХИВ ПОГОДЫ в Верхоянске

Время (UTC), дата Ветер
(напр.,м/с)
 
Видим.   Явления Облачность Т
(С)
Тd
(С)
f
(%)
Тe
(С)
Тes
(С)
Комфортность P
(гПа)
Po
(гПа)
Тmin
(С)
Tmax
(С)
R
(мм)
R24
(мм)
S
(см)
12 16.05 С 3 50 км 4/0
[Ci fib]
-1.8 -9.3 57 -6 -6 очень
холодно
1017.7 1000.3
15 16.05 СЗ 1 50 км 4/0
[Ci fib]
-4.3 -10.3 63 -6 -6 холодно 1018.8 1001.3
18 16.05 штиль 0 50 км 5/0
[Ci fib]
-6.1 -10.1 73 -7 -7 прохладно 1019.3 1001.6
21 16.05 СЗ 2 50 км 10/10 960 м
[Sc]
-4.3 -8.9 70 -8 -8 холодно 1019.1 1001.6 -6.1
00 17.05 СЗ 2 50 км 10/10 800 м
[Sc]
-3.0 -8.4 66 -7 -7 очень
холодно
1018.8 1001.3
03 17.05 С 3 50 км 10/10 800 м
[Sc]
-2.4 -8.4 63 -7 -7 очень
холодно
1018.6 1001.2
06 17.05 С 3 50 км 10/10 750 м
[Sc]
-1.7 -8.2 61 -6 -6 очень
холодно
1018.4 1001.0
09 17.05 С 3 20 км слаб. снег 10/10 700 м
[Sc]
-2.4 -8.0 65 -7 -7 очень
холодно
1019.2 1001.8 -1.6 0.0
12 17.05 С 2 10 км слаб. снег 10/0 570 м
[As op]
-3.7 -7.7 74 -8 -8 очень
холодно
1020.7 1003.1
15 17.05 С 2 10 км слаб. снег 10/0 480 м
[As op]
-5.9 -8.9 79 -10 -10 очень
холодно
1022.0 1004.3
18 17.05 С 3 50 км в посл. час снег 10/10 630 м
[Sc]
-7.3 -10.7 77 -13 -13 очень
холодно
1022.8 1005.0
21 17.05 С 4 50 км 10/10 800 м
[Sc]
-8.4 -12.6 72 -15 -15 очень
холодно
1023.3 1005.4 -8.4 0.2 <0.5
00 18.05 С 4 50 км 9/9 960 м
[Sc]
-6.2 -10.6 71 -13 -12 очень
холодно
1023.3 1005.6 -8.7
03 18.05 С 4 50 км 9/9 1200 м
[Sc]
-2.7 -9.3 60 -8 -8 очень
холодно
1022.2 1004.7
06 18.05 С 4 50 км 9/6 1320 м
[Sc Ac trans]
-0.8 -9.0 54 -6 -5 очень
холодно
1020.7 1003.3
09 18.05 С 4 50 км 10/5 1000 м
[Sc Ac trans]
-0.7 -9.3 52 -6 -5 очень
холодно
1020.4 1003.0 -0.4
12 18.05 СЗ 5
{10}
50 км 8/0
[Ac trans]
-3.8 -11.0 57 -10 -10 очень
холодно
1020.7 1003.1
15 18.05 С 4 50 км 4/0
[Ac trans]
-7.4 -11.3 74 -14 -14 очень
холодно
1021.5 1003.7
18 18.05 С 3 50 км 4/3 1000 м
[Sc Ac trans]
-8.3 -12.0 75 -14 -14 очень
холодно
1021.4 1003.5
21 18.05 С 4 50 км 9/8 930 м
[Sc Ac trans]
-7.6 -12.1 70 -14 -14 очень
холодно
1020.6 1002.7 -8.4
00 19.05 С 4
{10}
50 км 10/10 1020 м
[Sc]
-6.8 -13.0 61 -13 -13 очень
холодно
1019.8 1002.1 -7.7
03 19.05 С 4 50 км 10/10 1140 м
[Sc]
-4.9 -12.2 57 -11 -11 очень
холодно
1018.6 1001.0
06 19.05 С 3 50 км 9/9 1300 м
[Sc]
-2.8 -11.3 52 -7 -7 очень
холодно
1017.3 999.9
09 19.05 С 4 50 км 4/4 1000 м
[Sc]
-1.8 -11.2 49 -7 -6 очень
холодно
1017.0 999.6 -1.6
12 19.05 СЗ 3 50 км ясно -3.8 -11.5 55 -9 -8 очень
холодно
1017.3 999.8
15 19.05 штиль 0 50 км ясно -7.7 -13.2 65 -8 -8 очень
холодно
1017.8 1000.0
18 19.05 штиль 0 50 км ясно -11.0 -13.8 80 -11 -11 очень
холодно
1017.6 999.6
21 19.05 штиль 0 50 км ясно -6.4 -11.9 65 -7 -4 холодно 1016.8 999.1 -11.0
00 20.05 Ю 1 50 км ясно -2.8 -10.2 57 -4 +4 холодно 1015.4 998.0
03 20.05 Ю 2 50 км 1/0
[Ci fib]
+1.5 -10.1 42 -1 +9 холодно 1013.5 996.4
06 20.05 ЮВ 2 50 км 3/1 1000 м
[Cu hum Ci fib]
+4.6 -9.6 35 +3 +9 прохладно 1012.3 995.4
09 20.05 СВ 1 50 км 3/1 1000 м
[Cu hum Ci fib]
+6.1 -8.8 33 +6 +9 по сезону 1011.8 995.0 +6.3
12 20.05 штиль 0 50 км 9/1
[Sc Cs]
+2.6 -9.7 40 +2 +3 по сезону 1012.5 995.5
15 20.05 штиль 0 50 км 10/0
[Cs]
-0.8 -9.9 50 -1 -1 по сезону 1013.2 996.0
18 20.05 штиль 0 50 км 10/4 1000 м
[Sc Cs]
-1.4 -9.5 54 -2 -2 по сезону 1013.8 996.5
21 20.05 СВ 2 50 км осадки на расстоянии 10/6 1320 м
[Cb cap Ac trans]
+1.4 -7.3 52 -1 -1 по сезону 1014.1 997.0 -1.4
00 21.05 Ю 1 50 км 3/0
[Ac trans Ci fib]
+5.3 -6.9 41 +5 +13 по сезону 1014.9 998.0
03 21.05 З 2 50 км 5/4 1000 м
[Cu hum Ci fib]
+7.6 -7.1 34 +6 +12 по сезону 1014.5 997.7
06 21.05 СЗ 1 50 км 6/6 1000 м
[Cu hum]
+8.1 -7.4 33 +8 +12 по сезону 1014.5 997.7
09 21.05 ЮЗ 1 50 км 3/3 1000 м
[Cu hum]
+10.4 -6.4 30 +11 +13 тепло 1014.2 997.5 +10.6
12 21.05 СВ 1 50 км 1/0
[Ac trans]
+8.2 -7.1 33 +8 +8 по сезону 1014.1 997.4
15 21.05 СВ 1 50 км ясно -2.4 -8.8 61 -4 -4 холодно 1014.5 997.2
18 21.05 СВ 1 50 км ясно -2.0 -7.8 64 -4 -4 по сезону 1014.0 996.7
21 21.05 СВ 2 50 км ясно +5.6 -3.9 50 +4 +6 по сезону 1012.8 996.0 -4.6
00 22.05 СВ 3 50 км ясно +10.2 -4.4 35 +9 +15 тепло 1010.5 993.9
03 22.05 Ю 1 50 км 1/0
[Ci fib]
+14.1 -4.1 28 +15 +27 опасность
простуды
1007.4 991.1
06 22.05 СВ 3 50 км 3/0
[Ci fib]
+15.3 -3.6 27 +15 +21 тепло 1004.4 988.2
09 22.05 В 3 50 км 8/0
[Ci fib]
+16.6 -2.5 27 +16 +18 тепло 1002.1 986.0 +16.6
12 22.05 В 3 20 км дым 10/0
[Cs]
+13.7 -3.8 29 +13 +13 тепло 1000.3 984.1
15 22.05 СВ 2 50 км 10/0
[Cs]
+8.6 -6.0 35 +8 +8 тепло 999.5 983.0
18 22.05 штиль 0 50 км 10/0
[Cs]
+2.6 -4.4 60 +2 +2 по сезону 998.6 981.8
21 22.05 штиль 0 50 км 3/0
[Ac trans Ci fib]
+6.5 -2.9 51 +6 +9 тепло 997.6 981.1 +2.1
00 23.05 СВ 3 50 км 1/0
[Ci fib]
+13.0 0.0 41 +12 +18 тепло 995.8 979.7
03 23.05 С 3 50 км 1/0
[Ci fib]
+14.7 -0.7 35 +14 +23 тепло 995.1 979.0
06 23.05 С 4 50 км ясно +15.3 -0.7 33 +15 +20 тепло 994.8 978.8
09 23.05 С 4 50 км 1/0
[Ci fib]
+14.8 -1.7 32 +14 +16 тепло 994.9 978.8 +15.8 0.0

 

Местоположение метеостанции Верхоянск (Якутия, Россия): широта 67.57 долгота 133.40 высота над уровнем моря 136 м.

В архиве по умолчанию представлена погода в Верхоянске за последнюю неделю. Архивные данные за месяц целиком и за предыдущие месяцы, начиная с января 2011 года, Вы можете получить, выбрав интересующий диапазон дат из раскрывающегося списка и нажав кнопку "Ввод!".


*Определитесь, кто Вы:
робот инопланетянин человек

Внимание! Время в таблицах - всемирное. Для получения местного времени необходимо прибавить поправку, которая равна 10 ч.

Смотрите также архив погоды в соседних городах и на ближайших метеорологических станциях:

Погода в Батагае (Якутия, Россия) (52 км)
Погода в Екюччю (Якутия, Россия) (118 км)
Погода в Батагай-Алыте (Якутия, Россия) (129 км)
Погода в Усть-Чарках (Якутия, Россия) (162 км)
Погода в Иэме (Якутия, Россия) (274 км)
Погода в Усть-Куйге (Якутия, Россия) (284 км)
Погода в Себян-Кюеле (Якутия, Россия) (294 км)
Погода в Депутатском (Якутия, Россия) (329 км)
Погода в Юбилейной (Якутия, Россия) (373 км)
Погода в Джарджане (Якутия, Россия) (409 км)

Пояснения к столбцам:

Ветер - указаны скорость ветра в м/с - средняя за 10 мин, порывы в срок и между сроками (в фигурных скобках) и направление, откуда дует ветер: С - северный, СВ - северо-восточный, В - восточный, ЮВ - юго-восточный, Ю - южный, ЮЗ - юго-западный, З - западный, СЗ - северо-западный.
Видимость - горизонтальная дальность видимости в метрах или километрах. При видимости от 1 до 10 км при отсутствии осадков обычно наблюдается дымка, при ухудшении видимости до 1 км и менее - туман. В сухую погоду видимость может ухудшаться дымом, пылью или мглою.
Явления - указаны атмосферные явления, наблюдавшиеся в срок или в последний час перед сроком; фигурными скобками обозначены явления, наблюдавшиеся между сроками (за 1-3 часа до срока); квадратными скобками обозначены град или гололедные отложения с указанием их диаметра в мм.
Облачность - указаны через наклонную черту общая и нижняя облачность в баллах и высота нижней границы облаков в метрах; квадратными скобками обозначены формы облаков: Ci - перистые, Cs - перисто-слоистые, Cc - перисто-кучевые, Ac - высококучевые, As - высокослоистые, Sc - слоисто-кучевые, Ns - слоисто-дождевые, Cu - кучевые, Cb - кучево-дождевые. Подробнее классификацию облаков см. в Атласе облаков (PDF).
T - Температура воздуха - температура, измеренная на высоте 2 м над землей.
Td - Температура точки росы - температура, при понижении до которой содержащийся в воздухе водяной пар достигнет насыщения.
f - Относительная влажность воздуха - влажноcть воздуха, измеренная на высоте 2 м над землей.
Te - Эффективная температура - температура, которую ощущает одетый по сезону человек в тени. Характеристика душности погоды. При расчете учитывается влияние влажности воздуха и скорости ветра на теплоощущения человека.
Tes - Эффективная температура на солнце - температура, которую ощущает человек, с поправкой на солнечный нагрев. Характеристика знойности погоды. Зависит от высоты солнца над горизонтом, облачности и скорости ветра. Ночью, в пасмурную погоду, а также при ветре 12 м/с и более поправка равна нулю.
P - Атмосферное давление - приведенное к уровню моря атмосферное давление.
Po - Атмосферное давление - измеренное на уровне метеостанции атмосферное давление.
Tmin - Минимальная температура - минимум температуры воздуха на высоте 2 м над землей.
Tmax - Максимальная температура - максимум температуры воздуха на высоте 2 м над землей.
R - Количество осадков - Количество выпавших осадков за период времени, мм. При наведении курсора мыши на число - период времени, за который выпало указанное количество осадков.
R24 - Количество осадков - Количество выпавших осадков за 24 часа, мм.
S - Снежный покров - Высота снежного покрова, см. При наведении курсора мыши на число - состояние снежного покрова и степень покрытия местности в баллах.